Temp
-1 -2 -1 -2 -1 -1 -1 -1 -1 -4 -3 -2 -2 -2 -2 -2 -2 -1 -1 -1 -1 -1 -1 -0 0 0 1 1 1 1 1 1 2 2 3 3 3 4
-2 -2 -2 -2 -2 -2 -2 -2 -2 -2 -5 -3 -2 -2 -2 -2 -2 -2 -1 -1 -1 -1 -1 -1 -1 -0 0 0 1 1 1 1 1 2 2 3 3 3
-3 -3 -3 -3 -3 -3 -3 -3 -3 -3 -3 -3 -3 -3 -2 -2 -2 -2 -2 -2 -2 -1 -2 -1 -1 -0 -0 0 0 1 1 1 1 1 2 2 2 2
-3 -3 -4 -4 -4 -4 -4 -4 -4 -4 -4 -4 -4 -3 -3 -3 -3 -3 -3 -3 -2 -2 -2 -2 -1 -1 -0 0 0 0 0 0 0 0 1 1 1 2
-4 -4 -4 -4 -4 -4 -4 -4 -4 -4 -4 -4 -4 -4 -4 -4 -3 -3 -3 -3 -3 -2 -2 -2 -2 -1 -1 -1 -1 -1 -1 -1 -1 -0 -0 0 0 1
-4 -4 -4 -4 -4 -4 -5 -5 -4 -4 -4 -5 -5 -4 -4 -4 -4 -4 -3 -3 -3 -3 -2 -2 -2 -2 -2 -2 -2 -2 -2 -2 -1 -1 -0 -0 0 0
-5 -5 -5 -5 -5 -5 -5 -5 -4 -5 -5 -5 -5 -5 -5 -5 -4 -5 -4 -4 -3 -3 -2 -2 -2 -2 -2 -2 -2 -2 -2 -2 -2 -1 -1 -1 -0 -0
-5 -5 -5 -5 -5 -5 -4 -4 -4 -5 -5 -5 -5 -5 -5 -5 -4 -5 -5 -5 -5 -3 -4 -4 -3 -3 -2 -2 -2 -3 -3 -2 -2 -2 -1 -1 -1 -1
-5 -5 -5 -6 -6 -6 -6 -5 -5 -5 -4 -4 -5 -5 -5 -5 -4 -4 -4 -5 -5 -4 -5 -5 -3 -3 -2 -3 -3 -3 -3 -3 -2 -2 -2 -2 -2 -2
-6 -6 -6 -6 -6 -6 -6 -6 -6 -5 -5 -5 -5 -5 -5 -4 -4 -4 -5 -5 -5 -4 -4 -6 -3 -4 -3 -3 -3 -4 -4 -3 -3 -3 -2 -2 -2 -2
-6 -6 -6 -6 -6 -6 -6 -6 -6 -6 -5 -5 -5 -4 -4 -5 -4 -4 -5 -5 -5 -5 -5 -5 -5 -5 -5 -4 -4 -4 -4 -4 -4 -3 -3 -3 -3 -3
-7 -7 -7 -6 -6 -6 -6 -6 -6 -5 -5 -5 -5 -5 -5 -4 -4 -4 -5 -5 -5 -6 -4 -5 -5 -5 -5 -5 -5 -5 -5 -5 -5 -5 -4 -4 -4 -4
-7 -7 -7 -7 -6 -6 -5 -5 -5 -5 -5 -5 -5 -5 -4 -4 -4 -4 -4 -5 -5 -6 -5 -6 -6 -6 -6 -6 -6 -6 -6 -6 -6 -6 -6 -6 -6 -6
-7 -7 -7 -7 -6 -6 -5 -5 -5 -5 -4 -5 -5 -5 -5 -4 -4 -4 -4 -5 -5 -6 -6 -6 -7 -7 -7 -8 -8 -7 -7 -7 -7 -7 -7 -6 -6 -6
-7 -7 -6 -6 -6 -6 -5 -5 -5 -5 -5 -5 -5 -5 -5 -5 -5 -5 -5 -5 -6 -6 -6 -7 -7 -7 -8 -8 -9 -8 -8 -8 -8 -7 -7 -7 -7 -7
-8 -7 -7 -7 -6 -6 -6 -6 -6 -6 -6 -6 -6 -6 -5 -5 -5 -5 -6 -6 -7 -7 -6 -7 -7 -8 -8 -8 -8 -9 -9 -9 -8 -8 -8 -8 -8 -8
-7 -8 -7 -7 -7 -7 -7 -6 -6 -6 -6 -6 -6 -6 -6 -6 -6 -6 -7 -7 -8 -8 -8 -7 -7 -8 -8 -8 -9 -10 -9 -9 -9 -8 -9 -9 -8 -8
-7 -7 -7 -7 -7 -7 -7 -7 -7 -7 -7 -6 -6 -6 -7 -6 -6 -7 -8 -8 -8 -9 -9 -8 -9 -9 -9 -9 -9 -9 -9 -9 -9 -9 -9 -9 -8 -8
-9 -9 -9 -9 -8 -8 -8 -7 -7 -7 -7 -7 -7 -6 -7 -7 -7 -7 -8 -9 -9 -9 -9 -9 -9 -10 -10 -10 -9 -8 -8 -8 -9 -9 -9 -9 -8 -8
-10 -10 -10 -10 -10 -9 -9 -8 -8 -7 -8 -8 -7 -7 -7 -7 -8 -8 -8 -9 -10 -10 -10 -9 -9 -10 -10 -10 -9 -9 -9 -9 -9 -9 -9 -9 -9 -8
-11 -11 -11 -11 -11 -11 -10 -9 -9 -9 -8 -8 -8 -8 -8 -8 -9 -9 -9 -9 -9 -9 -9 -9 -9 -9 -9 -9 -10 -10 -9 -9 -9 -9 -9 -9 -9 -9
-12 -12 -12 -12 -12 -11 -11 -11 -10 -10 -9 -9 -9 -9 -9 -9 -9 -9 -10 -11 -10 -10 -10 -10 -10 -10 -10 -11 -10 -10 -10 -9 -9 -9 -9 -8 -8 -8
-13 -13 -13 -13 -13 -12 -12 -11 -11 -10 -10 -10 -10 -10 -9 -10 -9 -10 -10 -10 -10 -10 -10 -10 -10 -10 -10 -10 -10 -10 -10 -10 -10 -10 -10 -9 -9 -8
Height
874 875 876 876 877 878 879 880 881 885 886 887 888 889 889 890 890 888 887 887 887 886 887 886 886 885 885 884 884 883 883 883 883 883 882 882 881 881
875 876 876 878 879 880 881 882 882 883 886 886 887 888 888 889 889 887 886 885 885 885 885 885 885 884 884 883 883 883 882 881 881 880 881 880 880 880
876 877 878 879 880 881 882 882 883 884 885 887 887 887 887 887 886 885 884 884 883 883 883 882 882 882 882 882 882 881 881 880 879 878 879 878 878 878
878 878 879 880 881 882 882 883 883 884 885 886 887 887 886 886 885 883 883 882 882 881 881 881 880 880 880 881 880 880 879 878 877 876 876 875 875 875
879 879 879 880 881 882 883 883 884 884 885 885 886 886 885 884 883 883 881 881 880 880 879 879 878 879 879 879 878 878 877 876 875 875 874 872 871 871
879 879 879 880 881 881 882 883 883 884 884 884 884 884 884 883 882 881 880 879 878 878 878 877 876 876 876 876 876 875 874 874 873 872 871 870 869 868
878 878 878 879 881 880 880 882 882 882 882 881 882 882 882 881 881 881 879 877 875 874 875 875 875 874 874 874 873 872 871 871 869 868 867 866 866 864
876 877 877 878 878 879 879 880 880 879 880 879 879 879 879 879 879 879 878 876 875 872 872 872 872 872 871 870 870 869 867 867 866 865 864 863 862 861
874 874 875 875 876 875 876 876 876 876 877 875 875 876 877 876 877 875 875 874 872 871 870 868 869 867 867 867 866 865 864 863 862 861 860 859 859 857
871 871 871 871 871 871 871 871 871 871 872 872 872 872 872 872 872 872 871 870 869 867 866 866 865 863 863 862 861 860 859 858 857 856 855 854 854 852
866 866 866 866 866 867 867 866 865 865 866 867 867 867 868 868 868 867 866 865 864 864 864 862 861 858 857 856 855 854 854 853 852 851 850 849 848 847
861 861 862 862 862 862 861 861 860 860 860 860 861 862 863 862 862 862 861 861 862 861 861 860 858 857 853 850 849 849 850 849 847 846 845 844 842 840
857 857 856 857 857 857 856 856 855 856 855 856 855 855 856 856 855 856 857 858 857 856 857 856 854 854 853 848 845 844 844 842 840 839 837 835 834 833
853 852 852 852 853 852 851 851 851 851 851 850 849 849 849 849 849 851 852 852 852 851 851 851 849 849 846 844 842 838 836 834 832 829 828 825 825 825
848 847 847 846 846 845 845 845 845 845 845 844 844 844 844 844 846 847 847 847 846 846 845 845 844 842 842 839 837 833 831 826 825 823 820 819 818 817
843 841 841 841 841 840 839 839 839 839 839 839 838 839 840 840 840 841 841 841 840 839 839 839 838 837 834 832 830 826 825 823 818 817 814 811 809 808
837 835 834 833 833 833 833 833 833 833 833 833 832 833 833 834 834 835 835 835 834 833 831 830 830 830 828 826 822 820 818 814 812 810 808 804 802 800
831 829 828 828 828 828 827 826 826 826 826 825 825 826 826 827 828 829 829 829 828 826 825 823 823 822 820 816 815 811 810 808 805 803 802 799 793 791
827 826 825 824 823 822 821 821 820 819 819 819 818 819 819 820 822 822 822 822 821 819 817 817 817 816 814 809 806 806 803 800 798 795 793 791 786 781
824 822 821 820 819 817 816 815 814 813 812 811 811 812 813 814 815 815 815 815 814 812 810 809 808 807 806 802 798 795 796 793 791 787 784 781 778 774
819 817 816 815 813 812 811 810 808 807 807 806 806 807 808 809 809 809 808 809 808 806 802 800 799 800 797 796 791 785 783 784 784 781 778 776 771 766
814 812 810 808 807 806 805 804 803 802 802 801 801 802 802 802 802 801 801 800 799 798 795 792 791 791 790 789 783 779 776 772 771 770 769 768 765 757
807 805 803 801 800 799 798 797 796 795 795 795 795 795 795 794 794 793 793 792 791 790 788 785 784 783 781 779 776 772 769 766 761 757 753 752 750 746
Wind_Speed
7 7 6 7 6 6 5 3 4 2 1 4 3 5 3 1 3 6 8 9 9 8 9 9 8 7 8 8 8 8 8 7 8 9 9 10 10 11
6 5 5 5 5 5 4 4 3 2 2 3 3 4 1 4 7 10 12 12 11 8 8 8 9 9 8 8 9 10 11 10 10 10 11 11 11 12
4 3 3 3 2 2 2 2 3 2 2 1 3 4 7 8 9 10 12 11 10 8 7 8 8 9 10 10 10 10 11 12 12 12 12 12 13 13
2 2 2 1 0 1 1 1 1 1 1 2 4 6 8 8 10 11 10 8 8 6 8 8 8 8 7 7 8 10 10 12 13 13 14 14 14 14
3 2 2 3 3 3 3 3 3 3 4 5 6 9 11 10 11 10 7 6 7 8 8 8 7 6 7 8 8 9 9 12 15 14 15 14 14 14
4 4 4 5 5 5 6 6 6 6 6 7 9 11 12 12 12 9 10 11 12 10 8 9 9 9 11 10 9 10 12 15 17 16 15 14 15 16
6 6 6 6 7 6 6 6 8 9 9 9 11 12 14 12 9 9 13 14 16 13 11 8 6 9 10 10 13 15 18 18 16 16 16 17 18 19
7 7 7 8 9 9 10 12 13 15 17 16 16 14 16 14 15 14 12 10 5 10 6 18 15 15 14 14 16 16 16 16 15 15 15 15 14 15
10 10 10 10 9 11 12 11 13 13 15 16 18 17 14 12 13 14 16 16 14 18 16 19 23 22 16 15 17 16 16 14 16 15 16 18 18 19
12 13 14 14 14 13 14 15 16 16 17 18 19 19 19 18 16 17 18 18 19 21 14 7 18 20 22 21 19 18 18 18 18 19 20 19 19 17
16 16 16 18 18 15 16 19 20 21 20 19 19 19 20 18 17 19 22 16 6 9 16 14 19 21 21 24 23 22 18 17 17 17 18 19 18 21
17 18 17 17 18 17 18 19 22 24 23 23 22 20 20 20 19 19 21 18 15 8 11 8 12 14 9 18 10 8 19 23 21 20 21 24 26 29
19 21 22 18 18 19 19 22 23 23 25 24 26 26 24 23 22 21 21 20 19 18 23 16 11 16 15 18 24 27 26 29 28 29 28 27 26 26
23 25 25 21 20 20 21 21 22 24 26 24 28 28 27 25 24 21 19 18 18 20 21 20 16 19 22 22 20 24 26 30 30 29 28 27 25 24
19 20 20 21 22 24 22 23 24 24 24 20 18 22 20 17 16 17 17 19 19 20 22 22 22 24 24 24 22 24 24 25 28 29 25 26 29 30
20 22 24 24 23 23 21 19 20 20 20 18 17 19 18 18 18 18 17 18 19 23 20 19 20 21 24 26 26 27 26 17 27 29 30 31 30 28
22 23 24 25 23 25 26 26 28 28 28 28 25 25 23 22 20 19 18 17 19 22 26 24 20 19 21 23 27 24 24 28 30 32 28 27 27 26
20 18 17 19 21 22 20 20 23 22 23 23 24 24 24 25 21 17 16 19 21 22 23 25 21 20 21 23 24 27 25 25 27 27 25 25 30 28
11 16 14 14 20 18 18 20 22 24 24 21 21 22 21 20 17 17 17 18 18 20 21 22 21 20 14 10 19 19 26 27 23 25 25 26 30 33
17 16 17 18 19 19 19 21 23 22 20 19 20 18 16 17 18 19 20 21 19 21 23 24 24 23 20 18 20 25 23 27 27 28 29 30 33 33
19 17 18 20 20 17 17 17 15 15 14 14 14 15 16 17 20 21 22 20 21 21 20 22 26 23 24 22 19 23 30 26 26 29 26 26 29 30
24 27 26 23 21 21 21 18 17 18 17 18 19 19 19 20 22 24 23 21 22 22 25 27 28 26 24 22 25 27 28 36 31 26 29 31 31 19
23 23 23 22 22 23 24 24 23 23 22 23 22 22 22 24 24 25 24 23 23 24 24 25 25 23 25 25 27 26 27 30 33 31 32 31 32 36
Wind_Direction
114 112 105 94 89 89 102 136 128 142 140 169 152 136 129 137 345 335 335 329 329 339 337 335 336 335 331 331 330 331 332 332 328 326 325 323 323 322
112 109 102 95 89 88 89 89 87 112 128 163 173 171 289 309 314 318 318 315 314 310 324 327 326 324 321 318 316 315 317 318 317 315 312 312 311 308
116 111 101 90 82 74 70 70 67 66 80 139 204 264 302 311 312 316 321 319 312 301 304 315 313 318 316 311 312 314 316 316 314 310 306 304 303 304
146 140 134 141 275 289 290 317 357 338 298 280 284 302 312 321 323 324 331 333 328 318 320 315 307 308 315 313 313 316 324 324 320 313 306 299 298 298
202 214 225 242 264 272 273 274 272 261 260 265 288 300 306 316 321 325 331 334 331 321 311 306 311 308 309 307 309 313 324 333 323 312 309 307 303 298
235 248 252 257 263 269 273 275 274 269 264 268 280 290 298 308 311 317 322 329 327 320 318 313 290 289 295 296 291 291 298 310 316 306 300 302 303 303
252 256 257 258 264 266 269 271 266 263 265 267 274 282 287 296 302 309 309 319 317 317 313 318 314 304 304 298 291 291 299 304 303 300 296 293 294 295
265 263 262 264 260 259 259 264 267 259 260 259 265 268 280 292 296 293 301 309 316 317 323 311 312 310 309 305 303 304 299 294 294 295 294 294 294 302
268 271 276 278 265 263 265 270 263 265 268 271 263 269 276 283 292 288 286 286 279 295 304 303 305 301 306 305 307 304 302 293 290 282 291 293 296 300
271 272 276 280 281 279 280 278 274 269 267 267 273 277 277 282 276 278 284 285 286 298 303 269 305 299 304 302 301 298 295 292 287 287 287 286 289 284
278 279 282 285 285 279 276 278 278 279 276 271 269 270 271 269 269 273 270 270 262 284 293 279 286 293 300 300 299 300 293 290 291 292 290 288 282 289
287 286 280 275 280 278 270 269 270 274 278 280 279 271 264 264 266 270 280 281 280 287 292 260 288 303 302 296 290 294 295 293 291 289 287 285 286 288
284 286 288 280 276 274 267 266 267 277 277 271 272 272 270 267 265 263 264 265 266 271 283 282 280 285 276 280 289 291 289 291 292 292 290 285 285 283
272 277 279 276 273 270 268 266 264 263 265 267 266 258 264 267 264 262 266 259 265 273 282 277 273 275 279 281 282 289 289 291 295 293 295 293 285 282
281 282 276 271 269 265 261 262 262 260 263 266 255 263 265 264 264 261 257 269 274 277 277 277 275 276 274 269 273 281 289 290 288 289 291 290 291 292
273 273 271 272 274 277 278 270 265 261 263 260 261 268 265 257 253 256 263 273 276 279 280 276 275 272 274 275 277 276 278 268 284 284 285 288 286 283
268 269 269 269 271 273 274 272 269 270 268 265 264 267 263 256 253 258 264 270 267 278 286 291 291 284 278 276 274 267 269 269 273 280 282 279 279 277
292 281 263 261 263 267 271 274 273 268 265 263 256 263 258 251 254 257 266 269 269 270 273 286 291 289 286 281 257 260 262 263 272 276 273 271 279 278
300 306 317 309 274 268 273 269 272 275 276 269 260 264 256 248 247 260 271 269 265 266 267 278 280 270 270 272 272 260 265 272 274 275 272 267 269 278
307 303 297 296 293 289 281 275 278 273 277 266 254 243 247 255 262 267 275 276 268 272 274 278 275 261 248 261 271 278 272 269 269 271 274 277 277 282
298 294 293 295 290 289 284 279 274 267 261 266 264 261 262 264 267 271 272 267 270 269 262 267 275 283 279 282 266 272 280 278 264 264 270 271 276 283
290 289 290 288 282 281 280 275 274 274 273 269 268 269 270 270 271 273 270 261 262 262 266 273 282 281 276 262 266 273 278 288 287 272 265 262 263 267
289 288 287 284 281 279 278 276 274 273 273 272 270 269 270 270 273 274 268 259 260 263 265 270 273 270 264 261 267 271 272 277 284 286 279 275 266 264